Flag for Switzerland Weather past 2 weeks in Thusis, Graubünden, Switzerland

Now
57 °F

Passing clouds.


Feels Like: 57 °F
Forecast: 52 / 66 °F
Wind: 2 mph from South

Location: Chur-Ems

Current Time: Aug 29, 2014 at 6:12:32 AM

Latest Report: Aug 29, 2014 at 5:00 AM


Visibility: 13 mi

Pressure: 30.11 "Hg

Humidity: 87%

Dew point: 53 °F

Location of ThusisLocation

Historic Weather in Thusis — Graph

°F

Thusis temperature yesterday

Maximum temperature yesterday: 74 °F (at 4:00 PM)
Minimum temperature yesterday: 53 °F (at 5:00 AM)
Average temperature yesterday: 63 °F

Past Weeks' High & Low Weather Summary

 TemperatureHumidityPressure
High74 °F (Aug 28, 4:00 PM)97% (Aug 27, 3:00 AM)30.24 "Hg (Aug 27, 3:00 AM)
Low46 °F (Aug 25, 4:00 AM)35% (Aug 17, 1:00 PM)29.76 "Hg (Aug 18, 3:00 PM)
Average59 °F73%30.00 "Hg
* Reported Aug 14 4:00 AM — Aug 29 4:00 AM, Thusis, Weather by CustomWeather, © 2014

Note: Actual official high and low records may vary slightly from our data, if they occured in-between our weather recording intervals... More about our weather records

Advertising

Thusis weather history for previous 24 hours

 ConditionsComfort  
Time TempWeatherWind HumidityBarometerVisibility
4:00 AM
Aug 29
58 °FCool.2 mph87%30.10 "HgN/A
3:00 AM59 °FCool.1 mph86%30.10 "HgN/A
2:00 AM60 °FPassing clouds.3 mph86%30.10 "Hg12 mi
1:00 AM61 °FCool.3 mph84%30.10 "HgN/A
12:00 AM60 °FCool.1 mph85%30.11 "HgN/A
11:00 PM
Aug 28
60 °FPassing clouds.No wind85%30.09 "Hg12 mi
10:00 PM62 °FCool.2 mph80%30.07 "HgN/A
9:00 PM66 °FMild.5 mph67%30.03 "HgN/A
8:00 PM68 °FScattered clouds.9 mph65%29.99 "Hg12 mi
7:00 PM70 °FMild.10 mph61%29.97 "HgN/A
6:00 PM73 °FMild.13 mph55%29.96 "HgN/A
5:00 PM73 °FScattered clouds.14 mph56%29.95 "Hg12 mi
4:00 PM74 °FMild.15 mph51%29.96 "HgN/A
3:00 PM71 °FMild.14 mph52%29.97 "HgN/A
2:00 PM72 °FPassing clouds.14 mph49%29.97 "Hg16 mi
1:00 PM71 °FMild.8 mph58%29.99 "HgN/A
12:00 PM69 °FMild.2 mph58%30.01 "HgN/A
11:00 AM66 °FPassing clouds.3 mph59%30.04 "Hg16 mi
10:00 AM63 °FMild.3 mph64%30.07 "HgN/A
9:00 AM58 °FCool.1 mph79%30.10 "HgN/A
8:00 AM55 °FScattered clouds.2 mph85%30.11 "Hg10 mi
7:00 AM53 °FCool.No wind91%30.11 "HgN/A
6:00 AM53 °FCool.No wind93%30.11 "HgN/A
Weather by CustomWeather, © 2014

See weather overviewHow to use our weather pages